Location: Grasslands National Park East Block
(49.0708°N, 106.5295°W)
Time: 06:49:07
(UTC-06:00)

Vanguard 1 Rocket - All Passes

Search period start: 22 September 2019 00:00
Search period end: 02 October 2019 00:00
Orbit: 651 x 4225 km, 34.3° (Epoch: 20 September)

Date Brightness Start Highest point End Pass type
(mag) Time Alt. Az. Time Alt. Az. Time Alt. Az.
22 Sep - 00:49:18 10° WSW 00:51:19 11° SW 00:53:07 10° SW visible
22 Sep - 16:03:24 10° S 16:21:07 25° SE 16:34:31 10° E daylight
22 Sep - 18:29:04 10° SW 18:49:21 41° SSE 19:01:35 10° ESE daylight
22 Sep - 21:00:01 10° WSW 21:16:28 41° SSW 21:25:33 10° SE visible
22 Sep - 23:32:25 10° W 23:41:01 21° SW 23:46:46 10° S visible
23 Sep - 14:54:03 10° S 15:08:08 18° SE 15:20:08 10° ESE daylight
23 Sep - 17:15:29 10° SW 17:36:19 37° SSE 17:50:11 10° E daylight
23 Sep - 19:44:57 10° WSW 20:04:21 45° S 20:15:15 10° ESE visible
23 Sep - 22:17:09 10° W 22:30:15 32° SSW 22:37:54 10° SSE visible
24 Sep - 13:51:39 10° SE 13:55:29 11° SE 13:59:12 10° ESE daylight
24 Sep - 16:03:09 10° SSW 16:23:04 31° SSE 16:37:58 10° E daylight
24 Sep - 18:30:14 10° SW 18:51:37 45° S 19:04:29 10° ESE daylight
24 Sep - 21:01:52 10° WSW 21:18:49 41° SSW 21:28:14 10° SE visible
24 Sep - 23:35:08 10° W 23:43:07 19° SW 23:48:41 10° S visible
25 Sep - 14:52:35 10° S 15:09:53 23° SE 15:24:26 10° E daylight
25 Sep - 17:16:16 10° SW 17:38:25 42° SSE 17:53:09 10° E daylight
25 Sep - 19:46:35 10° WSW 20:06:40 46° S 20:18:00 10° ESE visible
25 Sep - 22:19:20 10° W 22:32:25 30° SSW 22:40:17 10° SSE visible
26 Sep - 13:45:07 10° SSE 13:57:03 15° SE 14:08:09 10° ESE daylight
26 Sep - 16:03:27 10° SSW 16:24:59 36° SSE 16:41:06 10° E daylight
26 Sep - 18:31:37 10° WSW 18:53:51 48° S 19:07:16 10° ESE daylight
26 Sep - 21:03:47 10° W 21:21:03 40° SSW 21:30:48 10° SE visible
26 Sep - 23:38:11 10° W 23:45:04 16° SW 23:50:11 10° SSW visible
27 Sep - 14:52:06 10° SSW 15:11:35 29° SE 15:28:01 10° E daylight
27 Sep - 17:17:22 10° SW 17:40:30 46° SSE 17:55:59 10° E daylight
27 Sep - 19:48:19 10° WSW 20:08:54 47° SSW 20:20:41 10° ESE visible
27 Sep - 22:21:38 10° W 22:34:28 27° SW 22:42:28 10° SSE visible
28 Sep - 13:42:56 10° S 13:58:32 20° SE 14:13:06 10° E daylight
28 Sep - 16:04:10 10° SW 16:26:52 41° SSE 16:44:02 10° E daylight
28 Sep - 18:33:10 10° WSW 18:56:02 50° S 19:09:59 10° ESE daylight
28 Sep - 21:05:46 10° W 21:23:11 38° SSW 21:33:16 10° SE visible
28 Sep - 23:41:54 10° WSW 23:46:52 13° SW 23:50:56 10° SSW visible
29 Sep - 12:38:54 10° SE 12:46:03 12° SE 12:53:10 10° ESE daylight
29 Sep - 14:52:19 10° SSW 15:13:15 34° SSE 15:31:11 10° E daylight
29 Sep - 17:18:43 10° SW 17:42:33 49° S 17:58:44 10° ESE daylight
29 Sep - 19:50:08 10° W 20:11:04 46° SSW 20:23:16 10° SE visible
29 Sep - 22:24:05 10° W 22:36:22 24° SW 22:44:23 10° S visible
30 Sep - 13:42:10 10° S 14:00:00 25° SE 14:16:56 10° E daylight
30 Sep - 16:05:15 10° SW 16:28:43 45° SSE 16:46:49 10° E daylight
30 Sep - 18:34:52 10° WSW 18:58:10 51° S 19:12:38 10° ESE daylight
30 Sep - 21:07:50 10° W 21:25:10 35° SSW 21:35:33 10° SSE visible
01 Oct - 12:34:51 10° SSE 12:47:20 17° SE 13:00:00 10° E daylight
01 Oct - 14:53:01 10° SSW 15:14:54 39° SSE 15:34:05 10° E daylight
01 Oct - 17:20:16 10° WSW 17:44:35 52° S 18:01:23 10° ESE daylight
01 Oct - 19:52:02 10° W 20:13:07 44° SSW 20:25:43 10° SE visible
01 Oct - 22:26:47 10° W 22:38:07 20° SW 22:45:57 10° S visible
